Погода в Анталахе

Мадагаскар     14°54′22″S   50°16′33″E
темп.,
°C
ветер,
м/с
пор.,
м/с
влажн.,
%
обл.,
%
осадки,
мм/ч
давл.,
гПа
погр.,
м
1 марта, пн
пн100:00+23юз12910 0.0 101042
03:00+23юз129343 0.0 100948
06:00+22зюз1293100 0.0 101053
09:00+29юв237058 0.2 1011903
12:00+30в246757 1.6 1009950
15:00+30вюв246742 4.2 10081119
18:00+24ююв24941 3.3 1009147
21:00+23ююз139613 6.0 101295
2 марта, вт
вт200:00+22юз229613 0.1 101158
03:00+21юз22957 0.1 101048
06:00+21юз229524 0.0 101160
09:00+29ююв245815 0.0 10121121
12:00+31в44530 0.0 10101228
15:00+30вюв45600 0.0 1009910
18:00+25ююв138157 0.0 1010121
21:00+23юз129069 0.0 101258
3 марта, ср
ср300:00+23зюз129026 0.0 101143
03:00+22юз129114 0.0 101056
06:00+22юз12900 0.0 101045
09:00+30юв12590 0.0 10111106
12:00+30в326157 0.2 1009945
15:00+30вюв355832 0.3 1008911
18:00+25юв25774 0.0 1009204
21:00+23ююз12854 0.0 101156
4 марта, чт
чт400:00+22зюз11957 1.3 101035
03:00+22юз11948 1.8 100933
06:00+22зюз11946 0.0 100935
09:00+30в11624 0.0 1010820
12:00+30всв326226 0.4 1008867
15:00+29св236851 1.9 1007833
18:00+25с1282100 0.8 1008107
21:00+23юз119797 8.1 101052
5 марта, пт
пт500:00+23ююз129889 5.1 101080
03:00+23ююз119795 5.2 100857
06:00+23зюз119799 0.1 100943
09:00+30ссв126474 0.6 1010770
12:00+31всв336169 0.1 1008951
15:00+30св336685 0.4 1006806
18:00+25с138698 0.6 1007129
21:00+24ююз119399 1.4 100872